Powrót do katalogu

COSMOS 1275 DEB

AktywnyPO
NORAD 42124·DEBRIS·🇷🇺 Russia

Wystrzelony Jun 4, 1981 z Plesetsk Cosmodrome

Loading…

Następne Przeloty (najbliższe 24 godziny)

TLE

ŚwieżeSource: Space-Track

Epoka: Sep 14, 2026, 01:15 UTC

1 42124U 81053QL  26257.05210962  .00000524  00000-0  56664-3 0  9998
2 42124  83.0048 266.5909 0123440  21.0629  36.3302 13.68149051638113

Śledź COSMOS 1275 DEB w czasie rzeczywistym z AllMySat

Download on the App Store